Hourly Weather Bolshie Klochki

Today, 17 June, Thursday

Time Temperature Precipitation Wind Pressure Humidity
00:00 +12°C° 0 mm 1 mps 744 mmHg 70%
01:00 +11°C° 0 mm 1 mps 745 mmHg 72%
02:00 +11°C° 0 mm 1 mps 745 mmHg 74%
03:00 +12°C° 0 mm 1 mps 745 mmHg 73%
04:00 +12°C° 0 mm 1 mps 745 mmHg 72%
05:00 +12°C° 0 mm 0 mps 746 mmHg 71%
06:00 +15°C° 0 mm 0 mps 746 mmHg 63%
07:00 +17°C° 0 mm 0 mps 746 mmHg 56%
08:00 +19°C° 0 mm 0 mps 747 mmHg 49%
09:00 +20°C° 0 mm 0 mps 747 mmHg 45%
10:00 +21°C° 0 mm 0 mps 747 mmHg 40%
11:00 +25°C° 0 mm 1 mps 747 mmHg 36%
12:00 +25°C° 0 mm 1 mps 747 mmHg 34%
13:00 +26°C° 0 mm 1 mps 747 mmHg 33%
14:00 +26°C° 0 mm 1 mps 747 mmHg 32%
15:00 +26°C° 0 mm 1 mps 747 mmHg 34%
16:00 +26°C° 0 mm 1 mps 747 mmHg 36%
17:00 +26°C° 0 mm 1 mps 747 mmHg 38%
18:00 +23°C° 0 mm 1 mps 747 mmHg 48%
19:00 +21°C° 0 mm 1 mps 747 mmHg 57%
20:00 +19°C° 0 mm 1 mps 747 mmHg 67%
21:00 +18°C° 0 mm 1 mps 747 mmHg 70%
22:00 +16°C° 0 mm 1 mps 747 mmHg 72%
23:00 +15°C° 0 mm 1 mps 747 mmHg 74%

Tomorrow, 18 June, Friday

Time Temperature Precipitation Wind Pressure Humidity
00:00 +15°C° 0 mm 1 mps 748 mmHg 76%
01:00 +14°C° 0 mm 1 mps 748 mmHg 78%
02:00 +14°C° 0 mm 1 mps 748 mmHg 79%
03:00 +14°C° 0 mm 1 mps 748 mmHg 79%
04:00 +15°C° 0 mm 1 mps 748 mmHg 79%
05:00 +16°C° 0 mm 1 mps 748 mmHg 78%
06:00 +19°C° 0 mm 1 mps 748 mmHg 70%
07:00 +21°C° 0 mm 1 mps 748 mmHg 62%
08:00 +23°C° 0 mm 2 mps 748 mmHg 54%
09:00 +24°C° 0 mm 2 mps 748 mmHg 49%
10:00 +26°C° 0 mm 2 mps 748 mmHg 44%
11:00 +27°C° 0 mm 2 mps 748 mmHg 39%
12:00 +28°C° 0 mm 2 mps 748 mmHg 38%
13:00 +28°C° 0 mm 2 mps 748 mmHg 37%
14:00 +28°C° 0 mm 2 mps 747 mmHg 37%
15:00 +28°C° 0 mm 2 mps 747 mmHg 40%
16:00 +28°C° 0 mm 2 mps 747 mmHg 43%
17:00 +28°C° 0 mm 2 mps 747 mmHg 46%
18:00 +26°C° 0 mm 2 mps 747 mmHg 56%
19:00 +23°C° 0 mm 2 mps 746 mmHg 66%
20:00 +20°C° 0 mm 2 mps 746 mmHg 76%
21:00 +19°C° 0 mm 2 mps 747 mmHg 79%
22:00 +18°C° 0 mm 2 mps 747 mmHg 81%
23:00 +17°C° 0 mm 2 mps 747 mmHg 84%

Day after tomorrow, 19 June, Saturday

Time Temperature Precipitation Wind Pressure Humidity
00:00 +16°C° 0 mm 2 mps 747 mmHg 86%
01:00 +16°C° 0 mm 2 mps 747 mmHg 88%
02:00 +15°C° 0 mm 2 mps 747 mmHg 90%
03:00 +16°C° 0 mm 2 mps 747 mmHg 88%
04:00 +16°C° 0 mm 1 mps 747 mmHg 85%
05:00 +18°C° 0 mm 1 mps 748 mmHg 83%
06:00 +19°C° 0 mm 2 mps 748 mmHg 74%
07:00 +21°C° 0 mm 2 mps 748 mmHg 66%
08:00 +24°C° 0 mm 2 mps 748 mmHg 58%
09:00 +25°C° 0 mm 2 mps 747 mmHg 53%
10:00 +26°C° 0 mm 2 mps 747 mmHg 48%
11:00 +28°C° 0 mm 3 mps 747 mmHg 43%
12:00 +28°C° 0 mm 3 mps 747 mmHg 42%
13:00 +29°C° 0 mm 3 mps 746 mmHg 40%
14:00 +29°C° 0 mm 3 mps 746 mmHg 39%
15:00 +29°C° 0 mm 2 mps 746 mmHg 42%
16:00 +29°C° 0 mm 2 mps 746 mmHg 44%
17:00 +29°C° 0 mm 2 mps 745 mmHg 47%
18:00 +26°C° 0 mm 2 mps 745 mmHg 57%
19:00 +24°C° 0 mm 2 mps 745 mmHg 67%
20:00 +21°C° 0 mm 2 mps 745 mmHg 78%
21:00 +20°C° 0 mm 2 mps 745 mmHg 80%
22:00 +19°C° 0 mm 2 mps 745 mmHg 83%
23:00 +18°C° 0 mm 2 mps 746 mmHg 86%

20 June, Sunday

Time Temperature Precipitation Wind Pressure Humidity
00:00 +17°C° 0 mm 2 mps 746 mmHg 88%
01:00 +17°C° 0 mm 2 mps 746 mmHg 91%
02:00 +16°C° 0 mm 1 mps 746 mmHg 94%
03:00 +18°C° 0 mm 1 mps 746 mmHg 91%
04:00 +18°C° 0 mm 1 mps 746 mmHg 88%
05:00 +19°C° 0 mm 1 mps 746 mmHg 86%
06:00 +21°C° 0 mm 1 mps 746 mmHg 77%
07:00 +23°C° 0 mm 2 mps 746 mmHg 69%
08:00 +24°C° 0 mm 2 mps 745 mmHg 61%
09:00 +26°C° 0 mm 2 mps 745 mmHg 56%
10:00 +27°C° 0 mm 3 mps 745 mmHg 51%
11:00 +28°C° 0 mm 3 mps 745 mmHg 46%
12:00 +29°C° 0 mm 3 mps 745 mmHg 44%
13:00 +30°C° 0 mm 3 mps 745 mmHg 43%
14:00 +30°C° 0 mm 3 mps 744 mmHg 41%
15:00 +30°C° 0 mm 3 mps 744 mmHg 45%
16:00 +29°C° 0 mm 3 mps 744 mmHg 49%
17:00 +29°C° 0 mm 2 mps 744 mmHg 53%
18:00 +27°C° 0 mm 2 mps 743 mmHg 62%
19:00 +25°C° 0 mm 2 mps 743 mmHg 70%
20:00 +24°C° 0 mm 1 mps 743 mmHg 79%
21:00 +23°C° 0 mm 1 mps 743 mmHg 83%
22:00 +22°C° 0 mm 1 mps 744 mmHg 88%
23:00 +20°C° 0 mm 1 mps 744 mmHg 92%

21 June, Monday

Time Temperature Precipitation Wind Pressure Humidity
00:00 +20°C° 0.1 mm 1 mps 744 mmHg 93%
01:00 +20°C° 0.1 mm 1 mps 744 mmHg 94%
02:00 +20°C° 0.1 mm 1 mps 744 mmHg 95%
03:00 +20°C° 0.4 mm 1 mps 744 mmHg 94%
04:00 +20°C° 0.4 mm 1 mps 744 mmHg 94%
05:00 +21°C° 0.4 mm 1 mps 744 mmHg 93%
06:00 +23°C° 0 mm 1 mps 744 mmHg 85%
07:00 +24°C° 0 mm 1 mps 744 mmHg 76%
08:00 +26°C° 0 mm 1 mps 744 mmHg 68%
09:00 +28°C° 0 mm 1 mps 744 mmHg 62%
10:00 +29°C° 0 mm 2 mps 744 mmHg 55%
11:00 +30°C° 0 mm 2 mps 744 mmHg 49%
12:00 +31°C° 0 mm 2 mps 744 mmHg 46%
13:00 +31°C° 0 mm 2 mps 744 mmHg 43%
14:00 +32°C° 0 mm 2 mps 743 mmHg 41%
15:00 +32°C° 0 mm 2 mps 743 mmHg 43%
16:00 +32°C° 0 mm 2 mps 743 mmHg 45%
17:00 +31°C° 0 mm 2 mps 743 mmHg 47%
18:00 +29°C° 0 mm 2 mps 743 mmHg 57%
19:00 +27°C° 0 mm 2 mps 743 mmHg 68%
20:00 +24°C° 0 mm 2 mps 743 mmHg 78%
21:00 +23°C° 0 mm 2 mps 743 mmHg 79%
22:00 +21°C° 0 mm 2 mps 743 mmHg 81%
23:00 +20°C° 0 mm 2 mps 744 mmHg 82%

22 June, Tuesday

Time Temperature Precipitation Wind Pressure Humidity
00:00 +21°C° 0 mm 1 mps 744 mmHg 84%
01:00 +20°C° 0 mm 1 mps 744 mmHg 86%
02:00 +20°C° 0 mm 1 mps 744 mmHg 88%
03:00 +20°C° 0 mm 1 mps 744 mmHg 86%
04:00 +21°C° 0 mm 1 mps 744 mmHg 84%
05:00 +21°C° 0 mm 1 mps 744 mmHg 83%
06:00 +23°C° 0 mm 1 mps 744 mmHg 74%
07:00 +25°C° 0 mm 1 mps 745 mmHg 65%
08:00 +27°C° 0 mm 2 mps 745 mmHg 56%
09:00 +29°C° 0 mm 2 mps 745 mmHg 50%
10:00 +30°C° 0 mm 2 mps 745 mmHg 45%
11:00 +32°C° 0 mm 2 mps 745 mmHg 39%
12:00 +32°C° 0 mm 2 mps 745 mmHg 38%
13:00 +34°C° 0 mm 2 mps 745 mmHg 37%
14:00 +34°C° 0 mm 2 mps 745 mmHg 36%
15:00 +34°C° 0 mm 2 mps 744 mmHg 38%
16:00 +32°C° 0 mm 2 mps 744 mmHg 41%
17:00 +32°C° 0 mm 2 mps 744 mmHg 44%
18:00 +30°C° 0 mm 2 mps 744 mmHg 54%
19:00 +27°C° 0 mm 2 mps 744 mmHg 64%
20:00 +25°C° 0 mm 2 mps 744 mmHg 74%
21:00 +24°C° 0 mm 2 mps 744 mmHg 76%
22:00 +23°C° 0 mm 1 mps 744 mmHg 79%
23:00 +22°C° 0 mm 1 mps 744 mmHg 81%
Show more